Location: Narragansett
(41.4496°N, 71.4488°W)
Time: 16:33:21
(UTC+00:00)

Nauka - Pass Details

Date: 21 September 2021
Orbit: 417 x 423 km, 51.6° (Epoch: 24 October)

Event Time Altitude Azimuth Distance (km) Brightness Sun altitude
Rises 01:01:57 0° 285° (WNW) 2,362 ? -25.5°
Reaches altitude 10° 01:04:35 10° 307° (NW) 1,501 ? -25.9°
Enters shadow 01:06:46 17° 347° (NNW) 1,162 ? -26.3°
